Voltar ao catálogo

TITAN 3C TRANSTAGE DEB

AtivoHEO
NORAD 28819·DEBRIS·🇺🇸 United States

Lançado Dec 21, 1965 de Cape Canaveral Space Force Station

Loading…

Próximas Passagens (próximas 24 horas)

TLE

AtualizadoSource: Space-Track

Época: Sep 11, 2026, 01:34 UTC

1 28819U 65108CG  26254.06587306  .00000207  00000-0  36746-2 0  9999
2 28819  26.7867 149.3290 6734452 120.4432   2.2559  2.70723388219376

Acompanhe TITAN 3C TRANSTAGE DEB em tempo real com AllMySat

Download on the App Store